Year,Month,Day,Hour,Minute,Value (Times are PST for temperature in C)
2018,10,02,00,00,12.30
2018,10,02,00,01,12.30
2018,10,02,00,02,12.30
2018,10,02,00,03,12.30
2018,10,02,00,04,12.30
2018,10,02,00,05,12.30
2018,10,02,00,06,12.30
2018,10,02,00,07,12.30
2018,10,02,00,09,12.30
2018,10,02,00,29,12.40
2018,10,02,00,30,12.40
2018,10,02,01,29,13.20
2018,10,02,01,30,13.20
2018,10,02,01,31,13.20
2018,10,02,01,32,13.20
2018,10,02,01,33,13.20
2018,10,02,01,34,13.20
2018,10,02,01,35,13.20
2018,10,02,01,36,13.20
2018,10,02,01,37,13.20
2018,10,02,01,38,13.20
2018,10,02,01,39,13.20
2018,10,02,01,40,13.20
2018,10,02,01,41,13.20
2018,10,02,01,42,13.20
2018,10,02,01,43,13.20
2018,10,02,01,44,13.20
2018,10,02,01,45,13.20
2018,10,02,01,46,13.20
2018,10,02,01,47,13.20
2018,10,02,01,48,13.20
2018,10,02,01,49,13.20
2018,10,02,01,50,13.20
2018,10,02,01,51,13.20
2018,10,02,01,52,13.20
2018,10,02,01,53,13.20
2018,10,02,01,54,13.20
2018,10,02,01,55,13.20
2018,10,02,01,56,13.20
2018,10,02,01,57,13.20
2018,10,02,01,58,13.20
2018,10,02,01,59,13.20
2018,10,02,02,00,13.20
2018,10,02,02,01,13.20
2018,10,02,02,03,13.20
2018,10,02,02,29,12.90
2018,10,02,02,30,12.90
2018,10,02,02,31,12.90
2018,10,02,02,32,12.80
2018,10,02,02,33,12.80
2018,10,02,02,34,12.80
2018,10,02,02,35,12.80
2018,10,02,02,36,12.80
2018,10,02,02,37,12.80
2018,10,02,02,38,12.80
2018,10,02,02,39,12.80
2018,10,02,02,40,12.80
2018,10,02,02,41,12.80
2018,10,02,02,42,12.70
2018,10,02,02,43,12.70
2018,10,02,02,44,12.70
2018,10,02,02,45,12.70
2018,10,02,02,46,12.70
2018,10,02,02,47,12.70
2018,10,02,02,48,12.70
2018,10,02,02,49,12.70
2018,10,02,02,50,12.70
2018,10,02,02,51,12.70
2018,10,02,02,52,12.70
2018,10,02,02,53,12.70
2018,10,02,02,54,12.70
2018,10,02,02,55,12.70
2018,10,02,02,56,12.70
2018,10,02,02,57,12.70
2018,10,02,02,59,12.70
2018,10,02,03,29,12.60
2018,10,02,03,30,12.60
2018,10,02,03,31,12.60
2018,10,02,03,32,12.60
2018,10,02,03,33,12.60
2018,10,02,03,34,12.60
2018,10,02,03,35,12.60
2018,10,02,03,36,12.60
2018,10,02,03,37,12.60
2018,10,02,03,38,12.60
2018,10,02,03,39,12.60
2018,10,02,03,40,12.60
2018,10,02,03,41,12.60
2018,10,02,03,42,12.50
2018,10,02,03,43,12.50
2018,10,02,03,44,12.50
2018,10,02,03,45,12.50
2018,10,02,03,46,12.50
2018,10,02,03,47,12.50
2018,10,02,03,48,12.50
2018,10,02,03,49,12.50
2018,10,02,03,50,12.50
2018,10,02,03,51,12.40
2018,10,02,03,52,12.40
2018,10,02,03,53,12.40
2018,10,02,03,54,12.40
2018,10,02,03,55,12.40
2018,10,02,03,56,12.40
2018,10,02,03,57,12.30
2018,10,02,03,58,12.30
2018,10,02,03,59,12.30
2018,10,02,04,00,12.30
2018,10,02,04,01,12.30
2018,10,02,04,02,12.30
2018,10,02,04,03,12.30
2018,10,02,04,04,12.30
2018,10,02,04,05,12.30
2018,10,02,04,07,12.30
2018,10,02,04,08,12.30
2018,10,02,04,09,12.20
2018,10,02,04,29,11.90
2018,10,02,04,30,11.80
2018,10,02,04,31,11.80
2018,10,02,04,32,11.80
2018,10,02,04,33,11.80
2018,10,02,04,34,11.80
2018,10,02,04,35,11.80
2018,10,02,04,36,11.80
2018,10,02,04,37,11.80
2018,10,02,04,38,11.80
2018,10,02,04,39,11.80
2018,10,02,04,40,11.80
2018,10,02,04,41,11.80
2018,10,02,04,42,11.80
2018,10,02,04,43,11.80
2018,10,02,04,44,11.80
2018,10,02,04,45,11.80
2018,10,02,04,46,11.80
2018,10,02,04,47,11.80
2018,10,02,04,48,11.80
2018,10,02,04,49,11.80
2018,10,02,04,50,11.70
2018,10,02,04,51,11.70
2018,10,02,04,52,11.70
2018,10,02,04,53,11.70
2018,10,02,04,54,11.70
2018,10,02,04,56,11.80
2018,10,02,04,57,11.80
2018,10,02,04,58,11.80
2018,10,02,05,29,12.50
2018,10,02,05,30,12.50
2018,10,02,05,31,12.60
2018,10,02,05,32,12.60
2018,10,02,05,33,12.60
2018,10,02,05,34,12.70
2018,10,02,05,35,12.70
2018,10,02,05,36,12.70
2018,10,02,05,37,12.70
2018,10,02,05,38,12.80
2018,10,02,05,39,12.80
2018,10,02,05,40,12.80
2018,10,02,05,41,12.80
2018,10,02,05,42,12.80
2018,10,02,05,43,12.80
2018,10,02,05,44,12.80
2018,10,02,05,45,12.80
2018,10,02,05,46,12.80
2018,10,02,05,47,12.80
2018,10,02,05,48,12.80
2018,10,02,05,49,12.80
2018,10,02,05,50,12.80
2018,10,02,05,51,12.80
2018,10,02,05,52,12.80
2018,10,02,05,53,12.80
2018,10,02,05,54,12.80
2018,10,02,05,55,12.80
2018,10,02,05,56,12.80
2018,10,02,05,57,12.80
2018,10,02,05,58,12.80
2018,10,02,05,59,12.80
2018,10,02,06,00,12.80
2018,10,02,06,01,12.80
2018,10,02,06,02,12.80
2018,10,02,06,03,12.80
2018,10,02,06,04,12.80
2018,10,02,06,06,12.80
2018,10,02,06,07,12.80
2018,10,02,06,08,12.80
2018,10,02,06,09,12.80
2018,10,02,06,29,12.80
2018,10,02,06,30,12.80
2018,10,02,07,29,12.60
2018,10,02,07,30,12.60
2018,10,02,07,31,12.60
2018,10,02,07,32,12.60
2018,10,02,07,33,12.60
2018,10,02,07,34,12.60
2018,10,02,07,35,12.60
2018,10,02,07,36,12.60
2018,10,02,07,37,12.60
2018,10,02,07,38,12.60
2018,10,02,07,39,12.60
2018,10,02,07,40,12.60
2018,10,02,07,41,12.60
2018,10,02,07,42,12.60
2018,10,02,07,43,12.60
2018,10,02,07,44,12.60
2018,10,02,07,45,12.60
2018,10,02,07,46,12.60
2018,10,02,07,47,12.60
2018,10,02,07,48,12.70
2018,10,02,07,49,12.70
2018,10,02,07,50,12.70
2018,10,02,07,51,12.70
2018,10,02,07,52,12.70
2018,10,02,07,53,12.70
2018,10,02,07,54,12.70
2018,10,02,07,55,12.70
2018,10,02,07,56,12.70
2018,10,02,07,57,12.70
2018,10,02,07,58,12.70
2018,10,02,07,59,12.70
2018,10,02,08,00,12.70
2018,10,02,08,02,12.70
2018,10,02,08,03,12.70
2018,10,02,08,29,12.80
2018,10,02,08,30,12.80
2018,10,02,08,31,12.80
2018,10,02,08,32,12.80
2018,10,02,08,33,12.90
2018,10,02,08,34,12.80
2018,10,02,08,35,12.80
2018,10,02,08,36,12.90
2018,10,02,08,37,12.90
2018,10,02,08,38,12.90
2018,10,02,08,39,12.90
2018,10,02,08,40,12.90
2018,10,02,08,41,12.90
2018,10,02,08,42,12.90
2018,10,02,08,43,12.80
2018,10,02,08,44,12.80
2018,10,02,08,45,12.80
2018,10,02,08,46,12.80
2018,10,02,08,47,12.80
2018,10,02,08,48,12.80
2018,10,02,08,49,12.80
2018,10,02,08,50,12.80
2018,10,02,08,51,12.80
2018,10,02,08,52,12.80
2018,10,02,08,53,12.80
2018,10,02,08,54,12.80
2018,10,02,08,55,12.80
2018,10,02,08,56,12.80
2018,10,02,08,57,12.80
2018,10,02,08,59,12.80
2018,10,02,09,29,13.70
2018,10,02,09,30,13.70
2018,10,02,09,31,13.70
2018,10,02,09,32,13.70
2018,10,02,09,33,13.70
2018,10,02,09,34,13.70
2018,10,02,09,35,13.80
2018,10,02,09,36,13.80
2018,10,02,09,37,13.80
2018,10,02,09,38,13.90
2018,10,02,09,39,13.90
2018,10,02,09,40,13.90
2018,10,02,09,41,14.00
2018,10,02,09,42,14.00
2018,10,02,09,43,14.10
2018,10,02,09,44,14.10
2018,10,02,09,45,14.20
2018,10,02,09,46,14.20
2018,10,02,09,47,14.20
2018,10,02,09,48,14.30
2018,10,02,09,49,14.40
2018,10,02,09,50,14.40
2018,10,02,09,51,14.50
2018,10,02,09,52,14.50
2018,10,02,09,53,14.60
2018,10,02,09,54,14.60
2018,10,02,09,55,14.60
2018,10,02,09,56,14.70
2018,10,02,09,57,14.70
2018,10,02,09,58,14.70
2018,10,02,09,59,14.70
2018,10,02,10,00,14.70
2018,10,02,10,01,14.60
2018,10,02,10,02,14.60
2018,10,02,10,03,14.50
2018,10,02,10,04,14.50
2018,10,02,10,06,14.50
2018,10,02,10,07,14.50
2018,10,02,10,29,14.40
2018,10,02,10,30,14.30
2018,10,02,10,31,14.30
2018,10,02,10,32,14.30
2018,10,02,10,33,14.20
2018,10,02,10,34,14.20
2018,10,02,10,35,14.20
2018,10,02,10,36,14.20
2018,10,02,10,37,14.20
2018,10,02,10,38,14.20
2018,10,02,10,39,14.20
2018,10,02,10,40,14.20
2018,10,02,10,41,14.20
2018,10,02,10,42,14.20
2018,10,02,10,43,14.20
2018,10,02,10,44,14.20
2018,10,02,10,45,14.20
2018,10,02,10,46,14.30
2018,10,02,10,47,14.30
2018,10,02,10,48,14.40
2018,10,02,10,49,14.50
2018,10,02,10,50,14.50
2018,10,02,10,51,14.60
2018,10,02,10,52,14.60
2018,10,02,10,53,14.70
2018,10,02,10,54,14.70
2018,10,02,10,55,14.70
2018,10,02,10,56,14.70
2018,10,02,10,57,14.70
2018,10,02,10,58,14.80
2018,10,02,10,59,14.80
2018,10,02,11,00,14.80
2018,10,02,11,02,14.80
2018,10,02,11,03,14.80
2018,10,02,11,04,14.80
2018,10,02,11,29,14.10
2018,10,02,11,30,14.20
2018,10,02,11,31,14.20
2018,10,02,11,32,14.20
2018,10,02,11,33,14.30
2018,10,02,11,34,14.40
2018,10,02,11,35,14.50
2018,10,02,11,36,14.60
2018,10,02,11,37,14.70
2018,10,02,11,38,14.70
2018,10,02,11,39,14.80
2018,10,02,11,40,14.80
2018,10,02,11,41,14.80
2018,10,02,11,42,14.80
2018,10,02,11,43,14.90
2018,10,02,11,44,14.90
2018,10,02,11,45,14.90
2018,10,02,11,46,15.00
2018,10,02,11,47,15.00
2018,10,02,11,48,15.10
2018,10,02,11,49,15.10
2018,10,02,11,50,15.10
2018,10,02,11,51,15.10
2018,10,02,11,52,15.20
2018,10,02,11,53,15.20
2018,10,02,11,54,15.30
2018,10,02,11,55,15.30
2018,10,02,11,56,15.30
2018,10,02,11,57,15.30
2018,10,02,11,58,15.30
2018,10,02,11,59,15.30
2018,10,02,12,00,15.30
2018,10,02,12,01,15.30
2018,10,02,12,02,15.20
2018,10,02,12,03,15.20
2018,10,02,12,04,15.20
2018,10,02,12,05,15.20
2018,10,02,12,07,15.10
2018,10,02,12,08,15.10
2018,10,02,12,09,15.10
2018,10,02,12,29,15.80
2018,10,02,12,30,15.80
2018,10,02,13,29,16.60
2018,10,02,13,30,16.60
2018,10,02,13,31,16.60
2018,10,02,13,32,16.60
2018,10,02,13,33,16.60
2018,10,02,13,34,16.60
2018,10,02,13,35,16.60
2018,10,02,13,36,16.60
2018,10,02,13,37,16.70
2018,10,02,13,38,16.70
2018,10,02,13,39,16.70
2018,10,02,13,40,16.60
2018,10,02,13,41,16.60
2018,10,02,13,42,16.60
2018,10,02,13,43,16.40
2018,10,02,13,44,16.40
2018,10,02,13,45,16.40
2018,10,02,13,46,16.40
2018,10,02,13,47,16.40
2018,10,02,13,48,16.40
2018,10,02,13,49,16.40
2018,10,02,13,50,16.40
2018,10,02,13,51,16.40
2018,10,02,13,52,16.40
2018,10,02,13,53,16.40
2018,10,02,13,54,16.40
2018,10,02,13,55,16.40
2018,10,02,13,56,16.40
2018,10,02,13,57,16.40
2018,10,02,13,58,16.60
2018,10,02,13,59,16.60
2018,10,02,14,00,16.60
2018,10,02,14,01,16.70
2018,10,02,14,03,16.70
2018,10,02,14,29,16.90
2018,10,02,14,30,16.90
2018,10,02,14,31,16.80
2018,10,02,14,32,16.80
2018,10,02,14,33,16.80
2018,10,02,14,34,16.80
2018,10,02,14,35,16.70
2018,10,02,14,36,16.70
2018,10,02,14,37,16.70
2018,10,02,14,38,16.70
2018,10,02,14,39,16.70
2018,10,02,14,40,16.70
2018,10,02,14,41,16.70
2018,10,02,14,42,16.70
2018,10,02,14,43,16.70
2018,10,02,14,44,16.70
2018,10,02,14,45,16.70
2018,10,02,14,46,16.70
2018,10,02,14,48,16.70
2018,10,02,15,29,14.70
2018,10,02,15,30,14.70
2018,10,02,15,31,14.60
2018,10,02,15,32,14.60
2018,10,02,15,33,14.60
2018,10,02,15,34,14.60
2018,10,02,15,35,14.50
2018,10,02,15,36,14.50
2018,10,02,15,37,14.50
2018,10,02,15,38,14.40
2018,10,02,15,39,14.40
2018,10,02,15,40,14.30
2018,10,02,15,41,14.30
2018,10,02,15,42,14.30
2018,10,02,15,43,14.20
2018,10,02,15,44,14.20
2018,10,02,15,45,14.20
2018,10,02,15,46,14.20
2018,10,02,15,47,14.20
2018,10,02,15,48,14.20
2018,10,02,15,49,14.10
2018,10,02,15,50,14.10
2018,10,02,15,51,14.10
2018,10,02,15,52,14.10
2018,10,02,15,53,14.10
2018,10,02,15,54,14.10
2018,10,02,15,55,14.10
2018,10,02,15,56,14.10
2018,10,02,15,57,14.20
2018,10,02,15,58,14.20
2018,10,02,15,59,14.20
2018,10,02,16,00,14.20
2018,10,02,16,01,14.20
2018,10,02,16,02,14.20
2018,10,02,16,04,14.20
2018,10,02,16,29,13.90
2018,10,02,16,30,13.80
2018,10,02,16,31,13.80
2018,10,02,16,32,13.80
2018,10,02,16,33,13.80
2018,10,02,16,34,13.80
2018,10,02,16,35,13.80
2018,10,02,16,36,13.80
2018,10,02,16,37,13.80
2018,10,02,16,38,13.70
2018,10,02,16,39,13.70
2018,10,02,16,40,13.70
2018,10,02,16,41,13.70
2018,10,02,16,42,13.70
2018,10,02,16,43,13.70
2018,10,02,16,44,13.80
2018,10,02,16,45,13.80
2018,10,02,16,46,13.80
2018,10,02,16,47,13.80
2018,10,02,16,48,13.80
2018,10,02,16,49,13.80
2018,10,02,16,50,13.70
2018,10,02,16,51,13.70
2018,10,02,16,52,13.70
2018,10,02,16,53,13.70
2018,10,02,16,54,13.70
2018,10,02,16,55,13.60
2018,10,02,16,56,13.60
2018,10,02,16,57,13.60
2018,10,02,16,59,13.50
2018,10,02,17,29,12.80
2018,10,02,17,30,12.80
2018,10,02,17,31,12.80
2018,10,02,17,32,12.80
2018,10,02,17,33,12.80
2018,10,02,17,34,12.80
2018,10,02,17,35,12.70
2018,10,02,17,36,12.70
2018,10,02,17,37,12.70
2018,10,02,17,38,12.70
2018,10,02,17,39,12.70
2018,10,02,17,40,12.70
2018,10,02,17,41,12.70
2018,10,02,17,42,12.70
2018,10,02,17,43,12.70
2018,10,02,17,44,12.70
2018,10,02,17,45,12.70
2018,10,02,17,46,12.70
2018,10,02,17,47,12.70
2018,10,02,17,48,12.60
2018,10,02,17,49,12.60
2018,10,02,17,50,12.50
2018,10,02,17,51,12.50
2018,10,02,17,52,12.50
2018,10,02,17,53,12.50
2018,10,02,17,54,12.50
2018,10,02,17,55,12.50
2018,10,02,17,56,12.40
2018,10,02,17,57,12.30
2018,10,02,17,58,12.30
2018,10,02,17,59,12.30
2018,10,02,18,00,12.30
2018,10,02,18,01,12.30
2018,10,02,18,02,12.30
2018,10,02,18,03,12.30
2018,10,02,18,04,12.30
2018,10,02,18,05,12.30
2018,10,02,18,06,12.30
2018,10,02,18,08,12.20
2018,10,02,18,29,11.70
2018,10,02,18,30,11.60
2018,10,02,19,29,10.90
2018,10,02,19,30,10.90
2018,10,02,19,31,10.90
2018,10,02,19,32,10.90
2018,10,02,19,33,10.90
2018,10,02,19,34,10.90
2018,10,02,19,35,10.90
2018,10,02,19,36,10.90
2018,10,02,19,37,10.90
2018,10,02,19,38,10.90
2018,10,02,19,39,10.90
2018,10,02,19,40,10.90
2018,10,02,19,41,10.90
2018,10,02,19,42,10.90
2018,10,02,19,43,10.90
2018,10,02,19,44,10.90
2018,10,02,19,45,10.80
2018,10,02,19,46,10.80
2018,10,02,19,47,10.80
2018,10,02,19,48,10.80
2018,10,02,19,49,10.80
2018,10,02,19,50,10.80
2018,10,02,19,51,10.80
2018,10,02,19,52,10.80
2018,10,02,19,53,10.80
2018,10,02,19,54,10.80
2018,10,02,19,55,10.80
2018,10,02,19,56,10.80
2018,10,02,19,57,10.80
2018,10,02,19,58,10.70
2018,10,02,19,59,10.70
2018,10,02,20,00,10.70
2018,10,02,20,01,10.60
2018,10,02,20,02,10.60
2018,10,02,20,03,10.60
2018,10,02,20,04,10.60
2018,10,02,20,05,10.60
2018,10,02,20,07,10.40
2018,10,02,20,08,10.40
2018,10,02,20,09,10.40
2018,10,02,20,29,9.90
2018,10,02,20,30,9.90
2018,10,02,20,31,9.90
2018,10,02,20,32,9.90
2018,10,02,20,33,9.90
2018,10,02,20,34,9.90
2018,10,02,20,35,9.90
2018,10,02,20,36,9.90
2018,10,02,20,37,9.90
2018,10,02,20,38,9.90
2018,10,02,20,39,9.90
2018,10,02,20,40,9.90
2018,10,02,20,41,9.90
2018,10,02,20,42,10.10
2018,10,02,20,43,10.10
2018,10,02,20,44,10.10
2018,10,02,20,45,10.10
2018,10,02,20,46,10.10
2018,10,02,20,47,10.10
2018,10,02,20,48,10.10
2018,10,02,20,49,10.20
2018,10,02,20,50,10.20
2018,10,02,20,51,10.20
2018,10,02,20,52,10.30
2018,10,02,20,53,10.30
2018,10,02,20,54,10.30
2018,10,02,20,55,10.30
2018,10,02,20,56,10.30
2018,10,02,20,57,10.30
2018,10,02,20,58,10.30
2018,10,02,20,59,10.30
2018,10,02,21,00,10.30
2018,10,02,21,01,10.30
2018,10,02,21,02,10.30
2018,10,02,21,03,10.30
2018,10,02,21,04,10.40
2018,10,02,21,06,10.40
2018,10,02,21,29,10.20
2018,10,02,21,30,10.20
2018,10,02,21,31,10.10
2018,10,02,21,32,10.10
2018,10,02,21,33,10.10
2018,10,02,21,34,10.10
2018,10,02,21,35,10.10
2018,10,02,21,36,10.10
2018,10,02,21,37,10.10
2018,10,02,21,38,10.10
2018,10,02,21,39,10.10
2018,10,02,21,40,9.90
2018,10,02,21,41,9.90
2018,10,02,21,42,9.90
2018,10,02,21,43,9.90
2018,10,02,21,44,9.90
2018,10,02,21,45,9.90
2018,10,02,21,46,9.90
2018,10,02,21,47,9.90
2018,10,02,21,48,9.90
2018,10,02,21,49,9.90
2018,10,02,21,50,9.90
2018,10,02,21,51,9.90
2018,10,02,21,52,9.90
2018,10,02,21,53,9.90
2018,10,02,21,54,9.90
2018,10,02,21,55,9.90
2018,10,02,21,56,9.90
2018,10,02,21,57,9.90
2018,10,02,21,58,9.90
2018,10,02,21,59,9.90
2018,10,02,22,00,9.90
2018,10,02,22,02,9.90
2018,10,02,22,03,9.90
2018,10,02,22,04,9.90
2018,10,02,22,29,9.60
2018,10,02,22,30,9.50
2018,10,02,22,31,9.50
2018,10,02,22,32,9.50
2018,10,02,22,33,9.50
2018,10,02,22,34,9.40
2018,10,02,22,35,9.40
2018,10,02,22,36,9.40
2018,10,02,22,37,9.40
2018,10,02,22,38,9.40
2018,10,02,22,39,9.30
2018,10,02,22,40,9.30
2018,10,02,22,41,9.30
2018,10,02,22,42,9.30
2018,10,02,22,43,9.30
2018,10,02,22,44,9.20
2018,10,02,22,45,9.20
2018,10,02,22,46,9.20
2018,10,02,22,47,9.20
2018,10,02,22,48,9.20
2018,10,02,22,49,9.20
2018,10,02,22,50,9.20
2018,10,02,22,51,9.20
2018,10,02,22,52,9.20
2018,10,02,22,53,9.20
2018,10,02,22,54,9.20
2018,10,02,22,55,9.10
2018,10,02,22,56,9.10
2018,10,02,22,57,9.10
2018,10,02,22,58,9.00
2018,10,02,22,59,9.00
2018,10,02,23,00,9.00
2018,10,02,23,01,9.00
2018,10,02,23,02,8.90
2018,10,02,23,03,8.90
2018,10,02,23,04,8.90
2018,10,02,23,06,8.90
2018,10,02,23,07,8.80
2018,10,02,23,08,8.80
2018,10,02,23,09,8.80
2018,10,02,23,29,8.50
2018,10,02,23,30,8.50
2018,10,02,23,31,8.50
2018,10,02,23,32,8.50
2018,10,02,23,33,8.50
2018,10,02,23,34,8.50
2018,10,02,23,35,8.50
2018,10,02,23,36,8.40
2018,10,02,23,37,8.40
2018,10,02,23,38,8.40
2018,10,02,23,39,8.40
2018,10,02,23,40,8.40
2018,10,02,23,41,8.40
2018,10,02,23,42,8.40
2018,10,02,23,43,8.40
2018,10,02,23,44,8.40
2018,10,02,23,45,8.40
2018,10,02,23,46,8.50
2018,10,02,23,47,8.50
2018,10,02,23,48,8.50
2018,10,02,23,49,8.50
2018,10,02,23,50,8.40
2018,10,02,23,51,8.40
2018,10,02,23,52,8.40
2018,10,02,23,53,8.40
2018,10,02,23,54,8.40
2018,10,02,23,55,8.40
2018,10,02,23,56,8.40
2018,10,02,23,57,8.40
2018,10,02,23,58,8.40
2018,10,02,23,59,8.40
